Location: Bromberg
(48.4833°N, 15.1333°E)
Time: 07:42:12
(UTC+00:00)

Daily predictions for brighter satellites

Satellite Brightness Start Highest point End
(mag) Time Altitude Azimuth Time Altitude Azimuth Time Altitude Azimuth
Cosmos 1939 Rocket 3.7 16:06:23 10° SE 16:10:00 30° ENE 16:13:35 10° N
Cosmos 1908 3.9 16:06:53 10° NNW 16:10:43 61° W 16:14:32 10° S
NOSS 3-4 (A) 4.0 16:06:01 10° WSW 16:11:49 54° NW 16:18:07 10° NE
NOSS 3-4 (C) 4.0 16:06:10 10° WSW 16:11:58 54° NW 16:18:16 10° NE
H-2A R/B 4.5 16:09:13 10° SSW 16:12:42 37° W 16:16:09 10° NNW
Cosmos 1674 3.5 16:13:13 10° SSW 16:16:59 54° WNW 16:20:47 10° N
Cosmos 2279 Rocket 4.2 16:11:48 10° N 16:17:54 50° ENE 16:23:58 10° SSE
Cosmos 1315 Rocket 2.8 16:15:43 10° N 16:19:39 58° ENE 16:23:35 10° SSE
Cosmos 1503 Rocket 4.1 16:16:23 10° SSW 16:21:45 81° ESE 16:27:10 10° NNE
CZ-4 R/B 2.8 16:19:30 10° ESE 16:22:20 18° ENE 16:25:08 10° NNE
Cosmos 2227 4.2 16:17:16 10° SSW 16:22:52 73° ESE 16:28:33 10° NNE
Cosmos 1536 Rocket 4.0 16:19:04 10° SSW 16:23:25 68° W 16:27:51 10° N
COSMO-SKYMED 1 3.6 16:21:17 10° NE 16:24:56 26° E 16:28:34 10° SSE
Cosmos 2227 Rocket 4.0 16:21:26 10° W 16:26:07 26° NW 16:30:49 10° N
ATLAS 2AS CENTAUR R/B 3.5 16:21:28 10° WSW 16:29:20 62° NW 16:37:04 10° NE
Cosmos 1634 Rocket 4.1 16:25:22 10° N 16:31:39 87° W 16:37:57 10° S
Cosmos 1844 Rocket 3.9 16:29:27 10° SSE 16:33:40 22° E 16:37:42 11° NE
CZ-2C R/B 3.6 16:29:58 10° SE 16:34:56 41° ENE 16:40:10 10° N
Okean-O 3.6 16:33:19 10° ESE 16:36:55 25° ENE 16:40:32 10° N
H-2A R/B 3.3 16:32:58 10° S 16:36:55 55° W 16:41:02 10° NNW
H-2A R/B 2.9 16:33:51 10° ESE 16:37:58 26° ENE 16:42:11 10° N
CZ-4B R/B 2.1 16:36:09 10° NNE 16:39:16 33° E 16:42:19 10° SSE
Okean O Rocket 1.8 16:35:17 10° S 16:39:44 79° WSW 16:44:12 10° NNW
SeaSat 1 4.2 16:36:46 10° N 16:40:50 26° NW 16:44:53 10° W
Cosmos 773 Rocket 3.9 16:36:30 10° NNW 16:41:42 87° ENE 16:46:50 10° SSE
SMAP 3.8 16:37:12 10° S 16:41:47 59° W 16:46:24 10° NNW
Cosmos 1626 2.8 16:39:13 10° SSW 16:42:51 56° WNW 16:46:30 10° N
CZ-4B R/B 3.7 16:38:17 10° S 16:43:48 69° WSW 16:49:26 10° NNW
Cosmos 1689 Rocket 4.2 16:48:09 11° ESE 16:48:09 11° ESE 16:48:34 10° SE
Aureole 2 Rocket 3.6 16:45:16 10° SSE 16:47:30 19° ESE 16:48:02 18° E
Cosmos 2297 Rocket 4.4 16:47:24 10° WNW 16:51:00 17° NW 16:54:36 10° N
Meteor 2-10 Rocket 3.7 16:45:52 10° N 16:51:22 57° ENE 16:56:36 10° SSE
CZ-2D R/B 3.2 16:52:40 10° SSE 16:56:29 59° ENE 17:00:17 10° N
Cosmos 1606 Rocket 3.8 16:52:09 10° NNW 16:56:32 75° W 17:00:57 10° S
OPS 8737 4.4 16:53:27 10° NW 16:56:35 88° NE 17:00:39 10° SE
H-2A R/B 2.6 16:53:18 10° N 16:57:45 63° WNW 17:02:04 10° SSW
USA 234 3.8 16:52:59 15° ENE 16:58:00 44° N 17:04:07 10° WNW
CSL-04 Rocket 4.4 16:54:14 10° ESE 16:58:51 30° ENE 17:03:33 10° N
YAOGAN 1 3.1 16:55:11 10° SE 16:59:08 36° ENE 17:03:07 10° N
Cosmos 1892 Rocket 3.5 16:55:32 10° S 16:59:48 62° E 17:04:06 10° NNE
ATLAS 5 CENTAUR R/B 2.0 16:58:10 10° WSW 17:02:10 57° NW 17:06:04 14° NE
Meteor 2-1 Rocket 4.4 16:59:02 10° N 17:04:27 48° ENE 17:09:46 10° SSE
Helios 1A Rocket 3.6 17:01:17 10° SE 17:04:59 33° ENE 17:08:44 10° N
SL-14 R/B 4.5 17:01:41 10° SSW 17:05:23 43° WNW 17:09:09 10° N
Iridium 4 Rocket 4.5 17:01:04 10° NNE 17:05:56 28° ENE 17:10:30 10° SE
MOS 1 Rocket 3.2 17:03:00 10° NNE 17:07:14 50° E 17:11:23 10° S
RESURS DK-1 4.0 17:03:49 10° WSW 17:07:32 31° NW 17:11:16 10° NNE
Cosmos 2228 4.0 17:04:21 10° NNW 17:08:29 50° W 17:12:36 10° S
Cosmos 1812 Rocket 4.5 17:07:49 10° NNE 17:11:31 25° ENE 17:11:36 25° ENE
SKYMED 2 3.5 17:08:48 10° NNE 17:13:11 76° ESE 17:17:30 10° S
Meteor 2-5 Rocket 4.5 17:08:57 10° SSW 17:14:23 53° WNW 17:19:48 10° N
Cosmos 1538 Rocket 4.0 17:10:11 10° NNW 17:15:24 85° WSW 17:20:34 10° SSE
Aureole 3 3.1 17:12:00 10° N 17:15:31 43° ENE 17:18:31 10° SSE
CZ-4C R/B 3.5 17:11:18 10° W 17:16:09 33° NNW 17:21:18 12° NNE
SJ-11-01 4.5 17:12:16 10° SE 17:16:45 47° ENE 17:21:15 10° N
SJ 16-02 1.8 17:13:07 10° S 17:17:14 40° ESE 17:18:57 27° NE
CZ-3B R/B 1.8 17:15:03 10° NW 17:17:26 57° NNE 17:20:09 23° ESE
Nadezhda 4 Rocket 4.0 17:12:21 10° S 17:18:29 60° E 17:24:34 10° NNE
Cosmos 1777 Rocket 4.0 17:15:19 10° SSW 17:20:35 85° WNW 17:25:56 10° NNE
Cosmos 2263 Rocket 3.2 17:17:26 10° SW 17:22:51 44° NW 17:28:16 10° NNE
Cosmos 1455 2.1 17:22:16 10° N 17:26:04 64° E 17:29:52 10° SSE
Cosmos 2058 Rocket 3.3 17:23:29 10° NNW 17:28:00 73° W 17:32:29 10° S
COSMOS 2406 4.1 17:27:14 10° NNW 17:32:13 29° NE 17:32:43 28° NE
Cosmos 1703 4.4 17:29:25 10° SSE 17:31:36 27° SE 17:31:36 27° SE
X-37B 2.3 17:30:51 10° SSW 17:33:14 22° SSE 17:33:14 22° SSE
Meteor 2-13 Rocket 4.3 17:30:51 10° S 17:36:57 77° E 17:43:07 10° NNE
ARGOS 3.1 17:32:12 10° SSE 17:37:26 59° ENE 17:42:43 10° N
Cosmos 44 4.4 17:37:09 10° S 17:40:17 26° SE 17:40:17 26° SE
Okean 1-7 Rocket 3.8 17:36:49 10° SSW 17:41:22 76° W 17:45:58 10° N
Lacrosse 5 1.9 17:37:15 10° NW 17:42:19 79° SW 17:44:59 28° SE
CREW DRAGON DEMO-1 DEB 3.2 17:39:30 10° WNW 17:41:52 54° WNW 17:41:52 54° WNW
NOSS 3-1 (C) 4.1 17:35:28 10° NW 17:42:35 59° NE 17:47:11 28° ESE
ERS-2 2.1 17:42:02 29° N 17:43:49 78° WNW 17:47:26 10° SSW
ISS -2.9 17:42:19 10° SW 17:45:00 39° S 17:45:00 39° S
CZ-2C R/B 3.2 17:45:50 38° ESE 17:45:50 38° ESE 17:50:46 10° SSE
PSLV R/B 3.9 17:43:31 22° NNE 17:46:12 88° ESE 17:50:25 10° SSW
CSL-04 Debris 4.0 17:42:10 10° SSE 17:47:31 72° ENE 17:52:54 10° NNW
COSMOS 2455 3.0 17:44:10 10° SW 17:50:12 74° NW 17:54:02 24° NNE
Cosmos 1553 Rocket 4.4 17:45:16 10° N 17:51:16 39° ENE 17:51:29 39° ENE
Cosmos 1626 Rocket 3.4 17:48:12 10° S 17:52:33 77° E 17:54:01 42° NNE
Cosmos 1844 3.6 17:49:20 10° SSW 17:54:57 72° ESE 17:57:10 38° NE
Cosmos 1833 Rocket 3.5 17:50:19 10° NNW 17:54:41 33° NE 17:54:41 33° NE
Cosmos 2026 Rocket 4.0 17:49:39 10° SSE 17:55:33 55° E 18:01:35 10° NNE
USA 281 4.3 17:56:41 24° NE 17:56:41 24° NE 18:01:11 10° N
Cosmos 990 Rocket 4.2 17:51:38 10° S 17:56:17 48° ESE 17:56:17 48° ESE
CZ-4 R/B 2.3 17:53:01 10° S 17:57:01 50° W 18:00:59 10° NNW
Cosmos 2082 Rocket 3.6 17:52:41 10° N 17:55:56 22° NNE 17:55:56 22° NNE
USA 229 DEB 4.0 17:52:28 10° NW 17:59:33 55° NE 18:01:49 42° E
USA 229 4.0 17:52:35 10° NW 17:59:39 55° NE 18:01:52 42° E
COSMO-SKYMED 1 4.0 17:57:10 10° N 18:01:11 37° WNW 18:05:10 10° SW
SL-08 RB Rocket 3.9 18:05:15 53° NNE 18:05:15 53° NNE 18:08:51 10° N
DMSP B5D1-3 4.4 18:01:31 26° NNE 18:04:26 84° ESE 18:09:32 10° SSW
USA 267 3.8 18:04:12 37° ESE 18:04:37 37° SE 18:10:36 10° SSW
CZ-4B R/B 4.2 18:08:52 10° NNW 18:11:14 18° WNW 18:13:34 10° WSW
Okean-O 3.9 18:09:00 10° S 18:13:11 41° W 18:17:25 10° NNW
NOSS 3-1 (A) 4.0 18:07:59 10° NW 18:15:08 59° NE 18:16:57 49° E
Cosmos 1844 Rocket 2.9 18:11:24 10° SW 18:17:02 68° WNW 18:19:24 35° NNE
H-2A R/B 2.9 18:12:20 10° S 18:17:08 48° W 18:22:05 10° NNW
Cosmos 2195 Rocket 4.5 18:14:52 10° S 18:21:12 86° W 18:27:36 10° N
ATLAS 2AS CENTAUR R/B 4.3 18:15:07 10° WNW 18:21:53 30° NNW 18:25:30 21° NNE
Meteor 2-8 Rocket 4.4 18:16:28 10° NNW 18:22:34 80° W 18:28:40 10° S
Meteor 2-15 4.3 18:17:06 10° N 18:23:18 76° E 18:24:42 55° SSE
Cosmos 1680 Rocket 3.8 18:19:16 10° NNW 18:24:28 65° WSW 18:26:36 35° S
Cosmos 1898 Rocket 4.0 18:19:53 10° SSW 18:23:42 48° S 18:23:42 48° S
Cosmos 1627 Rocket 4.5 18:24:54 10° S 18:31:05 82° W 18:37:23 10° N
Cosmos 2098 Rocket 4.2 18:25:17 10° S 18:32:22 83° E 18:39:51 10° N
Cosmos 1818 3.9 18:28:55 10° SW 18:34:17 59° NW 18:34:53 56° NNW
Cosmos 1428 Rocket 4.5 18:29:47 10° SSW 18:36:05 81° W 18:42:27 10° N
USA 234 3.2 18:40:20 69° NE 18:40:30 69° NNE 18:47:02 10° NW
Iridium 4 Rocket 4.5 18:40:42 10° NNW 18:46:12 49° W 18:51:18 10° SSW
ATLAS 5 CENTAUR R/B 3.9 18:44:46 10° WNW 18:47:37 18° NNW 18:47:37 18° NNW
Cosmos 2344 4.3 18:45:34 10° NW 18:54:51 88° SW 18:59:35 44° SE
SJ 16-02 3.3 18:52:14 10° WSW 18:55:56 26° WNW 18:55:59 26° NW
CZ-4C R/B 4.2 19:02:06 10° NW 19:06:30 22° N 19:06:30 22° N
COSMOS 2406 4.4 19:11:15 10° NNW 19:14:49 38° NW 19:14:49 38° NW
Lacrosse 5 4.2 19:21:19 10° W 19:24:15 17° WSW 19:24:15 17° WSW
CZ-2C R/B 4.2 19:27:19 32° W 19:27:19 32° W 19:30:57 10° SW
Cosmos 2082 Rocket 4.4 19:36:15 10° NNW 19:37:48 19° NNW 19:37:48 19° NNW
